EW9434 Weather Reports


Display with metric or nautical units.
time (UTC)temp
F
wind
direction
speed
MPH
gust
MPH
rain 1hr
in
rain 24hr
in
rain mn
in
humidity
%
barometer
mb
20260906194651 83 349 4.0 9.0 0.00 0.69 0.00 40 1015.1
20260906194509 82 342 5.0 9.0 0.00 0.69 0.00 40 1014.1
20260906194344 83 324 4.0 10.0 0.00 0.69 0.00 40 1015.1
20260906193557 83 341 5.0 10.0 0.00 0.69 0.00 42 1015.1
20260906193053 83 347 5.0 11.0 0.00 0.69 0.00 46 1015.2
20260906193038 82 318 4.0 11.0 0.00 0.69 0.00 46 1014.1
20260906192528 82 338 5.0 9.0 0.00 0.69 0.00 44 1015.3
20260906192001 82 350 4.0 9.0 0.00 0.69 0.00 43 1015.2
20260906191606 82 9 3.0 11.0 0.00 0.69 0.00 45 1014.1
20260906191433 82 335 4.0 11.0 0.00 0.69 0.00 44 1015.2
20260906191409 82 349 4.0 11.0 0.00 0.69 0.00 43 1015.2
20260906190405 82 340 4.0 8.0 0.00 0.69 0.00 44 1015.2
20260906190042 82 5 4.0 8.0 0.00 0.69 0.00 44 1014.1
20260906185904 82 340 4.0 11.0 0.00 0.69 0.00 44 1015.2
20260906185339 82 336 5.0 11.0 0.00 0.69 0.00 45 1015.2
20260906184827 81 328 5.0 12.0 0.00 0.69 0.00 46 1015.3
20260906184548 81 0 5.0 11.0 0.00 0.69 0.00 45 1015.4
20260906184508 81 22 7.0 12.0 0.00 0.69 0.00 45 1014.2
20260906183802 81 350 5.0 10.0 0.00 0.69 0.00 43 1015.4
20260906183235 82 335 5.0 11.0 0.00 0.69 0.00 43 1015.4
20260906183113 81 340 4.0 11.0 0.00 0.69 0.00 44 1014.4
20260906182941 82 340 5.0 11.0 0.00 0.69 0.00 45 1015.4
20260906182223 82 348 5.0 12.0 0.00 0.69 0.00 45 1015.5
20260906181724 81 332 6.0 13.0 0.00 0.69 0.00 45 1015.5
20260906181554 81 349 5.0 13.0 0.00 0.69 0.00 43 1014.4
20260906181156 81 340 5.0 13.0 0.00 0.69 0.00 43 1015.5
20260906180659 82 358 4.0 10.0 0.00 0.69 0.00 46 1015.5
20260906180128 81 344 4.0 10.0 0.00 0.69 0.00 52 1015.4
20260906180044 80 326 2.0 10.0 0.00 0.69 0.00 51 1014.4
20260906175847 81 318 5.0 10.0 0.00 0.69 0.00 50 1015.4
20260906175057 81 316 5.0 10.0 0.00 0.69 0.00 53 1015.4
20260906174556 81 300 4.0 11.0 0.00 0.69 0.00 52 1015.6
20260906174524 80 322 4.0 11.0 0.00 0.69 0.00 52 1014.5
20260906174052 81 334 4.0 11.0 0.00 0.69 0.00 53 1015.7
20260906173550 81 332 4.0 11.0 0.00 0.69 0.00 53 1015.6
20260906173055 80 332 4.0 12.0 0.00 0.69 0.00 50 1014.6
20260906173038 81 330 4.0 12.0 0.00 0.69 0.00 50 1015.7
20260906172537 80 344 4.0 12.0 0.00 0.69 0.00 53 1015.8
20260906172009 80 342 4.0 11.0 0.00 0.69 0.00 52 1015.7
20260906171525 80 339 5.0 11.0 0.00 0.69 0.00 51 1014.6
20260906171447 80 307 4.0 11.0 0.00 0.69 0.00 52 1015.7
20260906170944 80 0 4.0 9.0 0.00 0.69 0.00 53 1015.7
20260906170718 80 325 4.0 9.0 0.00 0.69 0.00 52 1015.8
20260906170106 79 316 4.0 11.0 0.00 0.69 0.00 55 1014.7
20260906165916 80 334 5.0 11.0 0.00 0.69 0.00 54 1015.8
20260906165410 79 358 4.0 11.0 0.00 0.69 0.00 55 1015.9
20260906164911 79 329 4.0 11.0 0.00 0.69 0.00 55 1016.0
20260906164514 79 347 4.0 11.0 0.00 0.69 0.00 53 1014.8
20260906164343 79 309 4.0 11.0 0.00 0.69 0.00 53 1016.0
20260906163817 80 307 3.0 10.0 0.00 0.69 0.00 54 1015.9
20260906163315 79 4 4.0 7.0 0.00 0.69 0.00 54 1016.1
20260906163011 79 342 3.0 9.0 0.00 0.69 0.00 55 1014.9
20260906162819 79 342 5.0 9.0 0.00 0.69 0.00 55 1016.1
20260906162516 79 339 5.0 11.0 0.00 0.69 0.00 54 1016.1
20260906161725 79 334 4.0 9.0 0.00 0.69 0.00 53 1016.3
20260906161549 79 349 3.0 8.0 0.00 0.69 0.00 54 1015.2
20260906161207 79 297 4.0 11.0 0.00 0.69 0.00 56 1016.4
20260906160704 79 6 4.0 11.0 0.00 0.69 0.00 54 1016.3
20260906160203 78 336 4.0 11.0 0.00 0.69 0.00 55 1016.3
20260906160107 78 295 1.0 11.0 0.00 0.69 0.00 55 1015.2
20260906155925 78 347 4.0 11.0 0.00 0.69 0.00 54 1016.4
20260906155136 78 331 4.0 10.0 0.00 0.69 0.00 54 1016.3
20260906154639 78 347 4.0 10.0 0.00 0.69 0.00 53 1016.3
20260906154609 77 334 4.0 10.0 0.00 0.69 0.00 53 1015.2
20260906154120 78 337 4.0 12.0 0.00 0.69 0.00 56 1016.3
20260906153841 78 329 4.0 12.0 0.00 0.69 0.00 59 1016.3
20260906153320 77 332 4.0 9.0 0.00 0.69 0.00 58 1016.4
20260906153027 77 349 4.0 9.0 0.00 0.69 0.00 60 1015.3
20260906152531 77 352 4.0 10.0 0.00 0.69 0.00 60 1016.4
20260906152031 76 353 5.0 11.0 0.00 0.69 0.00 60 1016.3
20260906151547 76 349 6.0 11.0 0.00 0.69 0.00 61 1015.1
20260906151507 76 353 4.0 11.0 0.00 0.69 0.00 61 1016.3
20260906150956 76 317 4.0 10.0 0.00 0.69 0.00 62 1016.2
20260906150459 75 359 5.0 12.0 0.00 0.69 0.00 61 1016.3
20260906150207 75 350 6.0 12.0 0.00 0.69 0.00 62 1016.2
20260906150105 75 5 4.0 12.0 0.00 0.69 0.00 62 1015.1
20260906145444 75 359 5.0 11.0 0.00 0.69 0.00 62 1016.1
20260906144926 75 293 4.0 10.0 0.00 0.69 0.00 62 1016.2
20260906144536 75 357 4.0 11.0 0.00 0.69 0.00 63 1015.0
20260906144426 75 311 4.0 11.0 0.00 0.69 0.00 63 1016.1
20260906143926 75 351 5.0 11.0 0.00 0.69 0.00 63 1016.0
20260906143425 75 9 5.0 10.0 0.00 0.69 0.00 62 1015.9
20260906143151 74 16 5.0 12.0 0.00 0.69 0.00 64 1015.8
20260906143006 74 309 3.0 10.0 0.00 0.69 0.00 64 1014.7
20260906142408 74 350 4.0 12.0 0.00 0.69 0.00 64 1015.8
20260906141910 74 353 4.0 12.0 0.00 0.69 0.00 64 1015.9
20260906141539 73 339 4.0 12.0 0.00 0.69 0.00 65 1014.8
20260906141352 73 354 5.0 12.0 0.00 0.69 0.00 66 1016.0
20260906140832 73 43 5.0 10.0 0.00 0.69 0.00 64 1015.8
20260906140552 74 335 4.0 10.0 0.00 0.69 0.00 65 1015.8
20260906140044 73 346 3.0 9.0 0.00 0.69 0.00 67 1014.6
20260906135813 74 323 4.0 9.0 0.00 0.69 0.00 66 1015.8
20260906135316 73 10 4.0 9.0 0.00 0.69 0.00 66 1015.8
20260906134751 73 5 3.0 9.0 0.00 0.69 0.00 68 1015.7
20260906134513 73 28 3.0 9.0 0.00 0.69 0.00 68 1014.6
20260906134228 73 342 3.0 6.0 0.00 0.69 0.00 69 1015.8
20260906133710 73 0 4.0 12.0 0.00 0.69 0.00 70 1015.8
20260906133208 72 359 4.0 12.0 0.00 0.69 0.00 71 1015.7
20260906133048 71 359 3.0 12.0 0.00 0.69 0.00 69 1014.6
20260906132653 72 353 4.0 10.0 0.00 0.69 0.00 70 1015.7
20260906132146 72 352 4.0 12.0 0.00 0.69 0.00 71 1015.7
20260906131910 71 353 4.0 10.0 0.00 0.69 0.00 72 1015.7
20260906131627 71 320 3.0 9.0 0.00 0.69 0.00 73 1015.6
20260906131616 71 353 3.0 10.0 0.00 0.69 0.00 72 1014.5
20260906130846 70 358 3.0 9.0 0.00 0.69 0.00 76 1015.5
20260906130552 69 331 3.0 7.0 0.00 0.69 0.00 77 1015.5
20260906130059 69 343 3.0 9.0 0.00 0.69 0.00 77 1014.3
20260906125559 69 311 3.0 11.0 0.00 0.69 0.00 80 1015.3
20260906125040 68 341 3.0 11.0 0.00 0.69 0.00 81 1015.3
20260906124549 67 325 3.0 5.0 0.00 0.69 0.00 82 1014.1
20260906124509 68 343 3.0 5.0 0.00 0.69 0.00 82 1015.3
20260906124207 68 338 3.0 4.0 0.00 0.69 0.00 83 1015.3
20260906123427 67 307 2.0 4.0 0.00 0.69 0.00 84 1015.3
20260906123058 67 303 2.0 6.0 0.00 0.69 0.00 85 1014.2
20260906122902 67 309 1.0 6.0 0.00 0.69 0.00 86 1015.3
20260906122405 67 310 1.0 5.0 0.00 0.69 0.00 88 1015.2
20260906121842 66 324 0.0 4.0 0.00 0.69 0.00 89 1015.1
20260906121513 66 319 0.0 4.0 0.00 0.69 0.00 89 1013.9
20260906121317 66 319 0.0 4.0 0.00 0.69 0.00 90 1015.1
20260906121032 66 320 0.0 4.0 0.00 0.69 0.00 91 1015.0
20260906120310 66 317 0.0 2.0 0.00 0.69 0.00 92 1015.0
20260906120005 65 317 0.0 2.0 0.00 0.69 0.00 92 1013.7
20260906115744 65 317 0.0 2.0 0.00 0.69 0.00 92 1014.9
20260906115242 65 316 0.0 2.0 0.00 0.69 0.00 92 1014.8
20260906114959 65 316 0.0 2.0 0.00 0.69 0.00 92 1014.6
20260906114613 65 316 0.0 2.0 0.00 0.69 0.00 92 1013.4
20260906114214 65 316 0.0 0.0 0.00 0.69 0.00 93 1014.7
20260906113711 65 316 0.0 0.0 0.00 0.69 0.00 92 1014.6
20260906113412 65 316 0.0 0.0 0.00 0.69 0.00 92 1014.6
20260906113038 65 316 0.0 0.0 0.00 0.69 0.00 91 1013.5
20260906112619 66 316 0.0 1.0 0.00 0.69 0.00 91 1014.5
20260906112054 66 316 0.0 1.0 0.00 0.69 0.00 90 1014.4
20260906111548 66 316 0.0 1.0 0.00 0.69 0.00 89 1014.3
20260906111515 65 316 0.0 1.0 0.00 0.69 0.00 89 1013.1
20260906111020 66 315 0.0 5.0 0.00 0.69 0.00 89 1014.2
20260906110452 66 315 0.0 5.0 0.00 0.69 0.00 87 1014.1
20260906110138 66 314 0.0 3.0 0.00 0.69 0.00 87 1014.1
20260906110045 66 315 0.0 2.0 0.00 0.69 0.00 87 1012.9
20260906105345 66 314 1.0 4.0 0.00 0.69 0.00 87 1014.1
20260906104843 66 314 1.0 3.0 0.00 0.69 0.00 87 1014.0
20260906104509 66 319 1.0 4.0 0.00 0.75 0.00 87 1012.8
20260906104314 66 309 1.0 4.0 0.00 0.69 0.00 87 1014.0
20260906103811 67 334 1.0 3.0 0.00 0.69 0.00 87 1014.1
20260906103306 67 319 1.0 3.0 0.00 0.69 0.00 87 1013.9
20260906103105 66 315 0.0 3.0 0.00 0.75 0.00 87 1012.8
20260906102803 67 314 1.0 4.0 0.00 0.69 0.00 88 1013.9
20260906102238 67 316 1.0 4.0 0.00 0.70 0.00 88 1013.9
20260906101710 67 264 1.0 5.0 0.00 0.73 0.00 88 1013.8
20260906101536 66 264 0.0 5.0 0.00 0.75 0.00 88 1012.5
20260906101144 67 319 1.0 5.0 0.00 0.75 0.00 88 1013.7
20260906100835 67 291 1.0 8.0 0.00 0.75 0.00 89 1013.8
20260906100114 67 338 1.0 8.0 0.00 0.75 0.00 89 1013.7
20260906100043 67 338 1.0 8.0 0.00 0.75 0.00 89 1012.5
20260906095808 67 310 1.0 6.0 0.00 0.75 0.00 89 1013.7
20260906095044 67 304 2.0 8.0 0.00 0.75 0.00 90 1013.6
20260906094559 67 309 2.0 8.0 0.00 0.75 0.00 90 1012.4
20260906094518 67 309 1.0 8.0 0.00 0.75 0.00 90 1013.6
20260906094435 68 295 1.0 6.0 0.00 0.75 0.00 90 1013.5
20260906093447 68 290 1.0 6.0 0.00 0.75 0.00 90 1013.5
20260906093113 67 301 1.0 5.0 0.00 0.75 0.00 90 1012.3
20260906092941 68 299 2.0 7.0 0.00 0.75 0.00 90 1013.4
20260906092440 68 314 2.0 8.0 0.00 0.75 0.00 90 1013.3
20260906091928 68 313 2.0 8.0 0.00 0.75 0.00 90 1013.3
20260906091538 68 302 2.0 7.0 0.00 0.75 0.00 90 1012.0
20260906091426 68 301 2.0 7.0 0.00 0.75 0.00 91 1013.3
20260906090928 68 336 2.0 9.0 0.00 0.75 0.00 91 1013.3
20260906090426 68 328 3.0 9.0 0.00 0.75 0.00 91 1013.3
20260906090002 68 334 1.0 9.0 0.00 0.75 0.00 91 1011.9
20260906085924 69 347 3.0 9.0 0.00 0.75 0.00 91 1013.2
20260906085418 69 334 2.0 9.0 0.00 0.75 0.00 92 1013.1
20260906084916 69 317 2.0 5.0 0.00 0.75 0.00 92 1013.1
20260906084540 68 315 2.0 5.0 0.00 0.75 0.00 92 1011.9
20260906084414 69 322 2.0 8.0 0.00 0.75 0.00 92 1013.1
20260906084132 69 321 3.0 8.0 0.00 0.75 0.00 92 1013.1
20260906083343 69 339 3.0 10.0 0.00 0.75 0.00 93 1013.1
20260906083013 68 317 3.0 10.0 0.00 0.75 0.00 93 1011.8
20260906082819 69 312 3.0 10.0 0.00 0.75 0.00 93 1013.1
20260906082517 69 319 3.0 8.0 0.00 0.75 0.00 93 1013.0
20260906082206 69 307 2.0 7.0 0.00 0.75 0.00 93 1013.0
20260906081557 69 292 2.0 5.0 0.00 0.75 0.00 93 1011.7
20260906081223 69 319 2.0 5.0 0.00 0.75 0.00 93 1013.0
20260906080620 69 292 2.0 6.0 0.00 0.75 0.00 93 1013.0
20260906080111 69 301 1.0 5.0 0.00 0.75 0.00 93 1011.7
20260906080053 70 308 2.0 5.0 0.00 0.75 0.00 93 1013.0
20260906075812 70 324 1.0 8.0 0.00 0.75 0.00 93 1013.1
20260906075022 70 290 1.0 8.0 0.00 0.75 0.00 94 1013.1
20260906074614 70 290 1.0 8.0 0.00 0.75 0.00 94 1011.7
20260906074520 70 323 1.0 6.0 0.00 0.75 0.00 94 1013.0
20260906073954 71 305 1.0 6.0 0.00 0.75 0.00 93 1013.0
20260906073916 71 310 1.0 6.0 0.00 0.75 0.00 94 1013.0
20260906073027 70 309 0.0 6.0 0.00 0.75 0.00 94 1011.8
20260906072900 71 309 1.0 9.0 0.00 0.75 0.00 94 1013.1
20260906072400 71 303 2.0 9.0 0.00 0.75 0.00 94 1013.2
20260906071833 71 331 2.0 6.0 0.00 0.75 0.00 94 1013.3
20260906071542 71 327 1.0 6.0 0.00 0.75 0.00 94 1011.9
20260906071304 71 328 2.0 6.0 0.00 0.75 0.00 94 1013.2
20260906070804 71 303 2.0 8.0 0.00 0.75 0.00 94 1013.2
20260906070258 72 273 2.0 8.0 0.00 0.75 0.00 94 1013.2
20260906070056 71 234 2.0 8.0 0.00 0.75 0.00 94 1011.9
20260906070021 72 329 1.0 7.0 0.00 0.75 0.00 94 1013.2
20260906065230 72 341 2.0 5.0 0.00 0.75 0.00 94 1013.1
20260906064717 71 322 3.0 10.0 0.00 0.75 0.00 95 1013.2
20260906064610 71 324 2.0 10.0 0.00 0.75 0.00 95 1011.8
20260906064219 71 325 3.0 10.0 0.00 0.75 0.00 95 1013.1
20260906063654 72 329 2.0 5.0 0.00 0.75 0.00 95 1013.1
20260906063126 72 324 2.0 5.0 0.00 0.75 0.00 95 1013.1
20260906063034 71 325 2.0 5.0 0.00 0.75 0.00 95 1011.7
20260906062624 72 344 2.0 5.0 0.00 0.75 0.00 95 1013.1
20260906062057 72 325 2.0 5.0 0.00 0.75 0.00 94 1013.1
20260906061554 72 314 2.0 6.0 0.00 0.75 0.00 94 1013.2
20260906061502 71 314 1.0 6.0 0.00 0.75 0.00 94 1011.8
20260906061232 72 328 2.0 8.0 0.00 0.75 0.00 94 1013.2
20260906061122 72 313 2.0 8.0 0.00 0.75 0.00 94 1013.2
20260906060021 72 312 1.0 4.0 0.00 0.75 0.00 94 1013.2
20260906055454 72 312 1.0 4.0 0.00 0.75 0.00 95 1013.3
20260906054932 72 301 1.0 4.0 0.00 0.75 0.00 95 1013.2
20260906054557 72 352 0.0 2.0 0.00 0.75 0.00 95 1011.8
20260906054406 73 352 1.0 2.0 0.00 0.75 0.00 95 1013.1
20260906054054 73 352 1.0 4.0 0.00 0.75 0.00 94 1013.1
20260906053332 73 352 2.0 4.0 0.00 0.75 0.00 95 1013.1
20260906053105 72 352 1.0 4.0 0.00 0.75 0.00 94 1011.8
20260906052807 73 352 2.0 5.0 0.00 0.75 0.00 95 1013.1
20260906052238 73 352 2.0 5.0 0.00 0.75 0.00 95 1013.1
20260906051732 73 329 2.0 9.0 0.00 0.75 0.00 95 1013.1
20260906051531 72 328 2.0 9.0 0.00 0.75 0.00 95 1011.7
20260906051232 73 322 2.0 9.0 0.00 0.75 0.00 95 1013.0
20260906050728 73 350 1.0 4.0 0.00 0.75 0.00 95 1013.1
20260906050225 73 331 1.0 3.0 0.00 0.75 0.00 95 1013.1
20260906050052 73 331 1.0 3.0 0.00 0.75 0.00 95 1011.7
20260906045713 73 331 1.0 3.0 0.00 0.75 0.00 95 1013.0
20260906045652 73 330 1.0 3.0 0.00 0.75 0.00 95 1012.8
20260906044648 73 330 1.0 4.0 0.00 0.75 0.00 94 1012.7
20260906044528 73 330 0.0 3.0 0.00 0.75 0.00 94 1011.3
20260906044145 73 330 1.0 4.0 0.00 0.75 0.00 94 1012.5
20260906043642 73 330 2.0 5.0 0.00 0.75 0.00 94 1012.5
20260906043116 74 326 3.0 5.0 0.00 0.75 0.00 95 1012.4
20260906043046 73 327 2.0 5.0 0.00 0.75 0.00 95 1011.1
20260906042551 74 330 3.0 5.0 0.00 0.75 0.00 95 1012.3
20260906042047 74 311 2.0 5.0 0.00 0.75 0.00 95 1012.3
20260906041551 73 343 1.0 4.0 0.00 0.75 0.00 95 1010.9
20260906041522 74 324 2.0 4.0 0.00 0.75 0.00 95 1012.2
20260906040954 74 324 2.0 4.0 0.00 0.75 0.00 95 1012.2
20260906040450 74 326 2.0 3.0 0.00 0.75 0.00 95 1012.2
20260906040029 73 302 1.0 6.0 0.00 0.75 0.00 95 1010.9
20260906035948 74 302 1.0 6.0 0.00 0.75 0.75 95 1012.2
20260906035432 74 332 1.0 3.0 0.00 0.75 0.75 95 1012.3
20260906034915 74 331 1.0 3.0 0.00 0.75 0.75 95 1012.3
20260906034606 74 333 0.0 3.0 0.00 0.75 0.75 95 1011.0
20260906034416 74 333 1.0 3.0 0.00 0.75 0.75 95 1012.3
20260906033913 74 334 2.0 4.0 0.00 0.75 0.75 95 1012.2
20260906033411 74 334 1.0 4.0 0.00 0.75 0.75 95 1012.1
20260906033134 74 334 1.0 3.0 0.00 0.75 0.75 95 1012.2
20260906033101 74 334 1.0 3.0 0.00 0.75 0.75 95 1010.8
20260906032612 74 334 1.0 3.0 0.00 0.75 0.75 95 1012.3
20260906031827 74 335 1.0 3.0 0.00 0.75 0.75 95 1012.2
20260906031600 74 335 0.0 3.0 0.00 0.75 0.75 95 1010.9
20260906031307 74 334 1.0 5.0 0.00 0.75 0.75 95 1012.2
20260906030808 74 332 1.0 5.0 0.00 0.75 0.75 96 1012.2
20260906030309 74 332 1.0 4.0 0.00 0.75 0.75 96 1012.2
20260906030047 73 331 1.0 4.0 0.00 0.75 0.75 96 1010.9
20260906025807 74 332 1.0 4.0 0.00 0.75 0.75 96 1012.2
20260906025242 73 332 0.0 4.0 0.00 0.75 0.75 96 1012.3
20260906025003 73 53 0.0 1.0 0.00 0.75 0.75 96 1012.3
20260906024516 72 53 0.0 1.0 0.00 0.75 0.75 96 1011.0
20260906024223 72 53 0.0 1.0 0.00 0.75 0.75 95 1012.3
20260906023657 72 53 0.0 0.0 0.00 0.75 0.75 95 1012.3
20260906023157 72 53 0.0 0.0 0.00 0.75 0.75 95 1012.3
20260906023107 71 53 0.0 0.0 0.00 0.75 0.75 95 1011.0
20260906022659 72 53 0.0 0.0 0.00 0.75 0.75 95 1012.3
20260906022133 72 53 0.0 0.0 0.00 0.75 0.75 95 1012.3
20260906021633 72 53 0.0 0.0 0.00 0.75 0.75 95 1012.4
20260906021537 71 53 0.0 0.0 0.00 0.75 0.75 95 1011.2
20260906021133 72 53 0.0 0.0 0.00 0.75 0.75 94 1012.4
20260906020632 72 53 0.0 1.0 0.00 0.75 0.75 94 1012.5
20260906020135 72 53 0.0 1.0 0.00 0.75 0.75 94 1012.5
20260906020021 71 53 0.0 1.0 0.00 0.75 0.75 94 1011.2
20260906015629 72 53 0.0 0.0 0.00 0.75 0.75 94 1012.6
20260906015106 72 53 0.0 2.0 0.00 0.75 0.75 94 1012.7
20260906014600 72 53 0.0 2.0 0.00 0.75 0.75 94 1012.7
20260906014507 72 53 0.0 1.0 0.00 0.75 0.75 94 1011.3
20260906014058 72 53 0.0 2.0 0.00 0.75 0.75 94 1012.7
20260906014030 72 53 0.0 2.0 0.00 0.75 0.75 94 1012.7
20260906013308 72 28 0.0 1.0 0.00 0.75 0.75 94 1012.7
20260906013020 72 28 0.0 1.0 0.00 0.75 0.75 94 1011.4
20260906012520 72 27 1.0 3.0 0.00 0.75 0.75 95 1012.5
20260906012016 72 27 0.0 3.0 0.00 0.75 0.75 96 1012.2
20260906011555 71 74 0.0 2.0 0.00 0.75 0.75 95 1010.9
20260906011517 71 75 0.0 1.0 0.00 0.75 0.75 95 1012.2
20260906011012 71 76 0.0 0.0 0.00 0.75 0.75 94 1012.0
20260906010511 71 76 0.0 0.0 0.00 0.75 0.75 94 1011.8
20260906010109 71 76 0.0 0.0 0.00 0.75 0.75 94 1010.4
20260906005941 71 76 0.0 0.0 0.00 0.75 0.75 94 1011.7
20260906005619 71 76 0.0 0.0 0.00 0.75 0.75 93 1011.6
20260906005508 71 76 0.0 0.0 0.00 0.75 0.75 93 1011.6
20260906004537 71 76 0.0 0.0 0.00 0.75 0.75 93 1010.3
20260906004410 71 76 0.0 1.0 0.00 0.75 0.75 93 1011.6
20260906003908 71 76 1.0 5.0 0.00 0.75 0.75 93 1011.6
20260906003403 71 76 0.0 5.0 0.00 0.75 0.75 93 1011.7
20260906003125 71 355 0.0 1.0 0.00 0.75 0.75 92 1011.7
20260906003051 71 355 0.0 1.0 0.00 0.75 0.75 92 1010.4
20260906002349 71 355 0.0 2.0 0.03 0.75 0.75 92 1011.5
20260906001853 71 355 1.0 2.0 0.23 0.75 0.75 92 1011.4
20260906001505 71 355 0.0 2.0 0.35 0.75 0.75 92 1010.0
20260906001325 71 356 1.0 3.0 0.50 0.75 0.75 92 1011.3
20260906000757 71 357 1.0 3.0 0.69 0.75 0.75 92 1011.1
20260906000256 71 357 1.0 2.0 0.69 0.75 0.75 91 1011.2
20260906000011 71 359 0.0 2.0 0.69 0.75 0.75 90 1009.9
20260905235731 71 359 1.0 2.0 0.69 0.75 0.75 90 1011.3
20260905235202 72 359 1.0 3.0 0.69 0.75 0.75 89 1011.4
20260905234925 72 3 2.0 6.0 0.69 0.75 0.75 89 1011.5
20260905234543 71 4 1.0 4.0 0.69 0.75 0.75 88 1010.1
20260905234133 71 357 2.0 6.0 0.69 0.75 0.75 88 1011.3
20260905233606 71 355 3.0 30.0 0.69 0.75 0.75 88 1011.2
20260905233103 71 347 7.0 30.0 0.69 0.75 0.75 86 1011.3
20260905233043 71 347 3.0 25.0 0.69 0.75 0.75 86 1009.9
20260905232549 71 264 12.0 37.0 0.68 0.74 0.74 84 1011.7
20260905232048 72 222 12.0 37.0 0.53 0.59 0.63 82 1012.5
20260905231546 76 233 10.0 24.0 0.31 0.37 0.37 76 1011.3
20260905231521 77 131 7.0 20.0 0.27 0.33 0.35 76 1012.8
20260905231234 85 202 4.0 20.0 0.02 0.08 0.08 66 1012.8
20260905230513 86 328 3.0 10.0 0.00 0.06 0.06 68 1011.0
20260905230028 86 335 2.0 10.0 0.00 0.06 0.06 69 1009.9
20260905225946 87 353 2.0 4.0 0.00 0.06 0.06 68 1011.3
20260905225416 87 354 2.0 4.0 0.00 0.06 0.06 67 1010.3
20260905224914 87 221 1.0 2.0 0.00 0.06 0.06 66 1010.7
20260905224554 87 221 0.0 2.0 0.00 0.06 0.06 66 1009.2
20260905224347 87 221 0.0 2.0 0.00 0.06 0.06 65 1010.6
20260905223842 87 221 0.0 2.0 0.00 0.06 0.06 65 1010.8
20260905223341 87 222 1.0 2.0 0.00 0.06 0.06 64 1010.7
20260905223051 87 225 0.0 2.0 0.00 0.06 0.06 65 1009.3
20260905223036 88 224 1.0 2.0 0.00 0.06 0.06 65 1010.8
20260905222311 88 220 1.0 3.0 0.00 0.06 0.06 64 1011.0
20260905221743 89 220 1.0 5.0 0.00 0.06 0.06 63 1010.7
20260905221555 88 219 1.0 5.0 0.00 0.06 0.06 62 1009.2
20260905221242 89 221 2.0 5.0 0.00 0.06 0.06 62 1010.7
20260905220715 90 264 1.0 4.0 0.00 0.06 0.06 60 1010.8
20260905220150 90 287 1.0 3.0 0.00 0.06 0.06 61 1010.6
20260905220105 90 287 1.0 3.0 0.00 0.06 0.06 61 1009.2
20260905215650 90 287 1.0 3.0 0.00 0.06 0.06 63 1010.5
20260905215340 91 199 1.0 3.0 0.00 0.06 0.06 59 1010.5
20260905214806 91 199 2.0 8.0 0.00 0.06 0.06 59 1010.6
20260905214606 91 199 0.0 8.0 0.00 0.12 0.06 59 1009.2
20260905213538 92 165 2.0 6.0 0.00 0.06 0.06 58 1010.5
20260905213036 92 213 1.0 3.0 0.00 0.08 0.06 56 1010.6
20260905213022 92 211 1.0 3.0 0.00 0.12 0.06 56 1009.2
20260905212511 92 213 1.0 4.0 0.00 0.11 0.06 57 1010.7
20260905212008 92 326 1.0 3.0 0.00 0.12 0.06 57 1010.8
20260905211716 92 325 1.0 3.0 0.00 0.12 0.06 57 1010.9
20260905211631 92 325 1.0 3.0 0.00 0.12 0.06 57 1009.5
20260905210957 92 326 1.0 3.0 0.00 0.12 0.06 57 1010.9
20260905210429 92 297 1.0 3.0 0.00 0.12 0.06 57 1010.9
20260905210006 92 297 1.0 3.0 0.00 0.12 0.06 55 1009.6
20260905205925 93 297 1.0 3.0 0.00 0.12 0.06 55 1010.9
20260905205402 93 297 1.0 3.0 0.00 0.12 0.06 56 1011.0
20260905204858 92 186 1.0 6.0 0.00 0.12 0.06 56 1011.0
20260905204608 92 186 0.0 6.0 0.00 0.12 0.06 56 1009.7
20260905204550 92 186 2.0 6.0 0.00 0.12 0.06 56 1011.1
20260905203826 92 192 2.0 6.0 0.00 0.12 0.06 59 1011.2
20260905203301 92 246 1.0 6.0 0.00 0.12 0.06 57 1011.2
20260905203025 91 340 0.0 6.0 0.00 0.12 0.06 59 1009.8
20260905203016 92 339 2.0 6.0 0.00 0.12 0.06 59 1011.2
20260905202256 91 336 2.0 5.0 0.00 0.12 0.06 58 1011.2
20260905201728 91 336 2.0 5.0 0.00 0.12 0.06 57 1011.3
20260905201524 91 326 1.0 4.0 0.00 0.12 0.06 58 1010.0
20260905201443 91 326 1.0 4.0 0.00 0.12 0.06 59 1011.4
20260905200658 91 2 1.0 3.0 0.00 0.12 0.06 59 1011.5
20260905200135 90 3 1.0 4.0 0.00 0.12 0.06 61 1011.5
20260905200017 90 3 0.0 4.0 0.00 0.12 0.06 60 1010.2
20260905195629 90 3 1.0 7.0 0.00 0.12 0.06 60 1011.6
20260905195127 90 3 2.0 7.0 0.00 0.12 0.06 60 1011.7